Stockton, CA

11:52 PM PDT on March 22, 2017 (GMT -0700)
Stockton Metro

Weather History for KSCK - March, 2013

Change the Weather History Date:

Tuesday, March 12, 2013

  Actual Average Record
Temperature  
Mean Temperature 59 °F -  
Max Temperature 75 °F 66 °F 80 °F (2007)
Min Temperature 42 °F 43 °F 29 °F (1950)
Degree Days  
Heating Degree Days 6 11  
Month to date heating degree days 123 137  
Since 1 July heating degree days 2126 2199  
Cooling Degree Days 0 0  
Month to date cooling degree days 0 0  
Year to date cooling degree days 0 0  
Growing Degree Days 8 (Base 50)    
Moisture  
Dew Point 45 °F    
Average Humidity 66    
Maximum Humidity 96    
Minimum Humidity 35    
Precipitation  
Precipitation 0.00 in 0.08 in 1.42 in (1965)
Month to date precipitation 0.11 0.95  
Year to date precipitation 1.59 6.23  
Since 1 July precipitation 8.71  
Snow  
Snow 0.00 in - - ()
Month to date snowfall 0.0  
Since 1 July snowfall 0.0  
Snow Depth 0.00 in    
Sea Level Pressure  
Sea Level Pressure 30.11 in    
Wind  
Wind Speed 1 mph (WNW)    
Max Wind Speed 15 mph    
Max Gust Speed 43 mph    
Visibility 9 miles    
Events      
T = Trace of Precipitation, MM = Missing Value Source: NWS Daily Summary

Daily Weather History Graph

Daily Weather History Graph

Search for Another Location

Airport or City:

Trip Planner

Search our weather history database for the weather conditions in past years. The results will help you decide how hot, cold, wet, or windy it might be!

Date:

Astronomy

Mar. 12, 2013 Rise Set
Actual Time 7:20 AM PDT 7:09 PM PDT
Civil Twilight 6:53 AM PDT 7:35 PM PDT
Nautical Twilight 6:23 AM PDT 8:06 PM PDT
Astronomical Twilight 5:52 AM PDT 8:37 PM PDT
Moon 7:31 AM PDT (3/12) 8:27 PM PDT (3/12)
Length of Visible Light 12h 41m
Length of Day
11h 49m
New Moon, 1% of the Moon is Illuminated
Mar 12
New Moon
Mar 19
First Quarter
Mar 27
Full
Apr 2
Last Quarter
Apr 10
New

Hourly Weather History & Observations

Time (PDT) Temp. Windchill Dew Point Humidity Pressure Visibility Wind Dir Wind Speed Gust Speed Precip Events Conditions
12:55 AM 48.9 °F - 42.1 °F 77% 30.11 in 10.0 mi Calm Calm - N/A   Clear
1:55 AM 46.9 °F - 42.1 °F 83% 30.12 in 10.0 mi East 3.5 mph - N/A   Clear
2:55 AM 46.0 °F - 41.0 °F 83% 30.12 in 10.0 mi Calm Calm - N/A   Clear
3:55 AM 46.0 °F - 41.0 °F 83% 30.10 in 10.0 mi Calm Calm - N/A   Clear
4:55 AM 44.1 °F 42.5 °F 41.0 °F 89% 30.10 in 8.0 mi East 3.5 mph - N/A   Clear
5:55 AM 44.1 °F - 41.0 °F 89% 30.11 in 8.0 mi Calm Calm - N/A   Clear
6:55 AM 45.0 °F - 42.1 °F 90% 30.12 in 8.0 mi Calm Calm - N/A   Clear
7:55 AM 43.0 °F - 41.0 °F 93% 30.13 in 6.0 mi Calm Calm - N/A   Clear
8:55 AM 50.0 °F - 45.0 °F 83% 30.14 in 7.0 mi Calm Calm - N/A   Clear
9:55 AM 55.0 °F - 46.0 °F 72% 30.16 in 8.0 mi Calm Calm - N/A   Clear
10:55 AM 61.0 °F - 46.0 °F 58% 30.16 in 10.0 mi Calm Calm - N/A   Clear
11:24 AM 62.6 °F - 46.4 °F 55% 30.15 in 9.0 mi Calm Calm - N/A   Partly Cloudy
11:55 AM 64.9 °F - 46.9 °F 52% 30.14 in 9.0 mi Calm Calm - N/A   Clear
12:55 PM 70.0 °F - 45.0 °F 41% 30.13 in 10.0 mi Calm Calm - N/A   Clear
1:55 PM 71.1 °F - 46.0 °F 41% 30.11 in 10.0 mi Variable 5.8 mph - N/A   Clear
2:55 PM 73.9 °F - 45.0 °F 35% 30.08 in 9.0 mi Calm Calm - N/A   Clear
3:55 PM 73.9 °F - 45.0 °F 35% 30.06 in 10.0 mi Variable 5.8 mph - N/A   Clear
4:55 PM 73.9 °F - 46.9 °F 38% 30.05 in 8.0 mi Variable 3.5 mph - N/A   Clear
5:55 PM 73.0 °F - 46.9 °F 39% 30.05 in 10.0 mi West 4.6 mph - N/A   Clear
6:55 PM 69.1 °F - 48.9 °F 49% 30.06 in 10.0 mi West 5.8 mph - N/A   Clear
7:55 PM 64.9 °F - 46.0 °F 50% 30.07 in 10.0 mi NW 5.8 mph - N/A   Clear
8:55 PM 63.0 °F - 48.9 °F 60% 30.09 in 10.0 mi Calm Calm - N/A   Clear
9:55 PM 60.1 °F - 46.9 °F 62% 30.10 in 10.0 mi Calm Calm - N/A   Clear
10:55 PM 55.9 °F - 46.9 °F 72% 30.11 in 10.0 mi West 3.5 mph - N/A   Clear
11:55 PM 55.9 °F - 46.9 °F 72% 30.11 in 10.0 mi Calm Calm - N/A   Clear